Flight Track Log - Related Links

Times and Time Zones

All times are in EDT time to prevent confusion due to time zone crossing. See the SWA127 flight status page for this flight to view local times or setup timezone preferences in your user account.

Time Position Orientation Groundspeed Altitude Reporting Facility
EDT Latitude Longitude Course Direction KTS MPH feet Rate Location/Type
Tue 11:35:09 AM 29.6333 -95.2653 148° Southeast 150 173 800  Level Houston Center
Tue 11:36:29 AM 29.5814 -95.2283 148° Southeast 217 250 3,700 2,114 Climbing Houston Center
Tue 11:36:54 AM 29.5603 -95.2294 183° South 220 253 4,500 2,852 Climbing Houston Center
Tue 11:37:30 AM 29.5131 -95.2392 190° South 266 306 6,600 2,806 Climbing Houston Center
Tue 11:37:56 AM 29.4939 -95.2489 204° Southwest 247 284 7,400 2,727 Climbing Houston Center
Tue 11:38:58 AM 29.4247 -95.2803 202° Southwest 267 307 10,600 2,784 Climbing Houston Center
Tue 11:40:01 AM 29.3292 -95.3264 203° Southwest 310 357 13,200 2,352 Climbing Houston Center
Tue 11:41:03 AM 29.2419 -95.3789 208° Southwest 350 403 15,500 2,516 Climbing Houston Center
Tue 11:42:05 AM 29.1644 -95.4528 220° Southwest 361 415 18,400 2,323 Climbing Houston Center
Tue 11:43:07 AM 29.0847 -95.5269 219° Southwest 368 423 20,300 2,032 Climbing Houston Center
Tue 11:44:09 AM 28.9992 -95.6044 218° Southwest 388 447 22,600 2,032 Climbing Houston Center
Tue 11:45:11 AM 28.9128 -95.6822 218° Southwest 394 453 24,500 1,887 Climbing Houston Center
Tue 11:46:13 AM 28.7978 -95.7706 214° Southwest 413 475 26,500 1,790 Climbing Houston Center
Tue 11:47:15 AM 28.7011 -95.8461 214° Southwest 421 484 28,200 1,920 Climbing Houston Center
Tue 11:48:18 AM 28.6061 -95.9200 214° Southwest 415 478 30,500 1,776 Climbing Houston Center
Tue 11:49:20 AM 28.5044 -95.9983 214° Southwest 398 458 31,900 726 Climbing Houston Center
Tue 11:50:22 AM 28.4142 -96.0689 215° Southwest 394 453 32,000 48 Climbing Houston Center
Tue 11:51:24 AM 28.3231 -96.1394 214° Southwest 395 455 32,000  Level Houston Center
Tue 11:52:26 AM 28.2311 -96.2106 214° Southwest 397 457 32,000  Level Houston Center
Tue 11:53:28 AM 28.1400 -96.2794 214° Southwest 395 455 32,000  Level Houston Center
Tue 11:54:30 AM 28.0481 -96.3486 214° Southwest 395 455 32,000  Level Houston Center
Tue 11:55:32 AM 27.9392 -96.4333 215° Southwest 394 453 32,000  Level Houston Center
Tue 11:56:35 AM 27.8478 -96.5022 214° Southwest 394 453 32,000  Level Houston Center
Tue 11:57:37 AM 27.7567 -96.5711 214° Southwest 394 453 32,000  Level Houston Center
Tue 11:58:39 AM 27.6653 -96.6422 215° Southwest 398 458 32,000 -435 Level Houston Center
Tue 11:59:41 AM 27.5744 -96.7108 214° Southwest 394 453 31,100 -1,645 Descending Houston Center
Tue 12:00:43 PM 27.4864 -96.7769 214° Southwest 386 444 28,600 -2,419 Descending Houston Center
Tue 12:01:45 PM 27.3950 -96.8464 214° Southwest 375 432 26,100 -2,371 Descending Houston Center
Tue 12:02:47 PM 27.3111 -96.9089 214° Southwest 366 421 23,700 -2,516 Descending Houston Center
Tue 12:03:49 PM 27.2122 -96.9822 213° Southwest 357 411 20,900 -2,446 Descending Houston Center
Tue 12:04:57 PM 27.1181 -97.0556 215° Southwest 349 402 18,400 -1,676 Descending Houston Center
Tue 12:05:40 PM 27.0675 -97.0931 213° Southwest 344 396 17,800 -1,309 Descending Houston Center
Tue 12:06:47 PM 26.9761 -97.1600 213° Southwest 336 387 16,000 -844 Descending Houston Center
Tue 12:07:48 PM 26.9044 -97.2144 214° Southwest 308 354 16,000 -738 Level Houston Center
Tue 12:08:49 PM 26.8386 -97.2683 216° Southwest 292 336 14,500 -1,970 Descending Houston Center
Tue 12:10:02 PM 26.7625 -97.3464 222° Southwest 306 352 11,600 -2,017 Descending Houston Center
Tue 12:10:45 PM 26.7178 -97.3928 223° Southwest 311 358 10,600 -1,355 Descending Houston Center
Tue 12:11:04 PM 26.7011 -97.4114 225° Southwest 302 348 10,200 -1,400 Descending Houston Center
Tue 12:11:45 PM 26.6594 -97.4547 223° Southwest 290 334 9,200 -1,548 Descending Houston Center
Tue 12:12:06 PM 26.6389 -97.4758 223° Southwest 284 327 8,600 -1,574 Descending Houston Center
Tue 12:12:46 PM 26.5989 -97.5167 222° Southwest 272 313 7,600 -1,452 Descending Houston Center
Tue 12:13:08 PM 26.5831 -97.5331 223° Southwest 275 316 7,100 -1,418 Descending Houston Center
Tue 12:13:41 PM 26.5536 -97.5650 224° Southwest 267 307 6,300 -1,355 Descending Houston Center
Tue 12:14:10 PM 26.5261 -97.5922 222° Southwest 262 302 5,700 -1,254 Descending Houston Center
Tue 12:14:48 PM 26.4950 -97.6267 225° Southwest 250 288 4,900 -1,258 Descending Houston Center
Tue 12:15:12 PM 26.4822 -97.6436 230° Southwest 249 287 4,400 -1,475 Descending Houston Center
Tue 12:15:49 PM 26.4414 -97.6572 197° South 230 265 3,400 -1,429 Descending Houston Center
Tue 12:16:15 PM 26.4122 -97.6567 179° South 240 276 2,900 -1,100 Descending Houston Center
Tue 12:16:49 PM 26.3783 -97.6564 180° South 217 250 2,300 -968 Descending Houston Center
Tue 12:17:17 PM 26.3517 -97.6569 181° South 212 244 1,900 -536 Descending Houston Center
Tue 12:17:45 PM 26.3281 -97.6583 183° South 198 228 1,800 -581 Descending Houston Center
Tue 12:18:19 PM 26.3019 -97.6586 181° South 172 198 1,300 -727 Descending Houston Center
Tue 12:18:51 PM 26.2839 -97.6597 183° South 117 135 1,000 -677 Descending Houston Center
Tue 12:19:21 PM 26.2669 -97.6589 177° South 131 151 600 -643 Descending Houston Center
Tue 12:19:47 PM 26.2522 -97.6592 181° South 122 140 400 -484 Descending Houston Center
Tue 12:20:23 PM 26.2286 -97.6583 178° South 131 151 100 -500 Descending Houston Center
Tue 12:22:00 PM 26.2271 -97.6551 North  Level Estimated

Login

Don't have an account? Register now (free) for customized features, flight alerts, and more!